Zurück zum Katalog

ELECTRON KICK STAGE R/B

AktivPO
NORAD 67559·ROCKET BODY·🇺🇸 United States

Gestartet Jan 22, 2026 von Rocket Lab Launch Complex 1

Loading…

Nächste Überflüge (nächste 24 Stunden)

TLE

AktuellSource: Space-Track

Epoche: Sep 13, 2026, 22:23 UTC

1 67559U 26015D   26256.93299865  .00043594 -34374-6  55976-3 0  9996
2 67559  89.0341 255.1221 0416452 210.9999 146.6052 14.97016271 34726

Verfolge ELECTRON KICK STAGE R/B in Echtzeit mit AllMySat

Download on the App Store